| time (UTC) | temp F | wind direction | speed MPH | gust MPH | rain 1hr in | rain 24hr in | rain mn in | humidity % | barometer mb |
| 20260506062501 | 56 | 339 | 2.0 | 4.0 | 0.00 | 0.11 | 0.05 | 89 | 1006.7 |
| 20260506062001 | 56 | 343 | 1.0 | 4.0 | 0.00 | 0.11 | 0.05 | 90 | 1006.3 |
| 20260506061500 | 56 | 289 | 1.0 | 2.0 | 0.00 | 0.11 | 0.05 | 91 | 1006.7 |
| 20260506061000 | 56 | 297 | 2.0 | 3.0 | 0.00 | 0.11 | 0.05 | 92 | 1006.7 |
| 20260506060500 | 56 | 298 | 2.0 | 5.0 | 0.00 | 0.11 | 0.05 | 92 | 1006.7 |
| 20260506051001 | 54 | 319 | 2.0 | 3.0 | 0.00 | 0.11 | 0.05 | 97 | 1006.6 |
| 20260506050500 | 54 | 279 | 2.0 | 4.0 | 0.00 | 0.11 | 0.05 | 97 | 1006.5 |
| 20260506045001 | 55 | 277 | 1.0 | 3.0 | 0.00 | 0.11 | 0.05 | 97 | 1006.4 |
| 20260506044501 | 55 | 1 | 1.0 | 5.0 | 0.00 | 0.11 | 0.05 | 97 | 1006.6 |
| 20260506044001 | 55 | 290 | 1.0 | 6.0 | 0.00 | 0.11 | 0.05 | 97 | 1006.6 |
| 20260506043501 | 55 | 341 | 1.0 | 8.0 | 0.00 | 0.11 | 0.05 | 97 | 1006.6 |
| 20260506043001 | 55 | 340 | 1.0 | 6.0 | 0.00 | 0.11 | 0.05 | 97 | 1006.4 |
| 20260506042501 | 55 | 287 | 1.0 | 3.0 | 0.00 | 0.11 | 0.05 | 98 | 1006.6 |
| 20260506042001 | 55 | 324 | 1.0 | 2.0 | 0.00 | 0.11 | 0.05 | 98 | 1006.5 |
| 20260506041501 | 54 | 308 | 1.0 | 2.0 | 0.00 | 0.11 | 0.05 | 98 | 1006.6 |
| 20260506041001 | 54 | 351 | 1.0 | 4.0 | 0.00 | 0.11 | 0.05 | 98 | 1006.6 |
| 20260506040500 | 54 | 303 | 1.0 | 4.0 | 0.00 | 0.11 | 0.05 | 98 | 1006.4 |
| 20260506040001 | 54 | 342 | 1.0 | 5.0 | 0.00 | 0.11 | 0.05 | 98 | 1006.6 |
| 20260506035500 | 54 | 273 | 1.0 | 3.0 | 0.00 | 0.11 | 0.05 | 98 | 1006.5 |
| 20260506035000 | 54 | 324 | 1.0 | 5.0 | 0.00 | 0.11 | 0.05 | 99 | 1006.7 |
| 20260506034500 | 54 | 294 | 1.0 | 3.0 | 0.00 | 0.11 | 0.05 | 98 | 1006.9 |
| 20260506034000 | 55 | 339 | 1.0 | 3.0 | 0.00 | 0.11 | 0.05 | 98 | 1006.5 |
| 20260506033500 | 55 | 344 | 1.0 | 3.0 | 0.00 | 0.11 | 0.05 | 98 | 1006.7 |
| 20260506033000 | 55 | 268 | 2.0 | 2.0 | 0.00 | 0.11 | 0.05 | 98 | 1006.4 |
| 20260506032500 | 55 | 271 | 1.0 | 5.0 | 0.00 | 0.11 | 0.05 | 98 | 1006.6 |
| 20260506032000 | 55 | 336 | 1.0 | 2.0 | 0.00 | 0.11 | 0.05 | 98 | 1006.6 |
| 20260506031500 | 55 | 322 | 1.0 | 2.0 | 0.00 | 0.11 | 0.05 | 98 | 1006.5 |
| 20260506031000 | 55 | 299 | 1.0 | 5.0 | 0.00 | 0.11 | 0.05 | 98 | 1006.6 |
| 20260506030500 | 55 | 311 | 1.0 | 3.0 | 0.00 | 0.11 | 0.05 | 98 | 1006.8 |
| 20260506030000 | 55 | 308 | 1.0 | 4.0 | 0.00 | 0.11 | 0.05 | 97 | 1006.7 |
| 20260506025500 | 55 | 293 | 1.0 | 4.0 | 0.00 | 0.11 | 0.05 | 97 | 1006.7 |
| 20260506025001 | 55 | 291 | 1.0 | 4.0 | 0.00 | 0.11 | 0.05 | 97 | 1006.9 |
| 20260506024501 | 55 | 267 | 0.0 | 3.0 | 0.00 | 0.11 | 0.05 | 98 | 1006.9 |
| 20260506024001 | 55 | 335 | 0.0 | 2.0 | 0.00 | 0.11 | 0.05 | 98 | 1006.6 |
| 20260506023501 | 55 | 307 | 0.0 | 2.0 | 0.00 | 0.11 | 0.05 | 98 | 1006.9 |
| 20260506023001 | 55 | 326 | 0.0 | 1.0 | 0.00 | 0.11 | 0.05 | 98 | 1006.8 |
| 20260506022501 | 55 | 337 | 0.0 | 2.0 | 0.00 | 0.11 | 0.05 | 98 | 1006.9 |
| 20260506022001 | 55 | 298 | 0.0 | 1.0 | 0.00 | 0.11 | 0.05 | 98 | 1006.9 |
| 20260506021501 | 55 | 291 | 0.0 | 2.0 | 0.00 | 0.11 | 0.05 | 98 | 1006.8 |
| 20260506021001 | 55 | 298 | 0.0 | 1.0 | 0.00 | 0.11 | 0.05 | 98 | 1007.1 |
| 20260506020500 | 55 | 341 | 1.0 | 2.0 | 0.00 | 0.11 | 0.05 | 98 | 1007.0 |
| 20260506020000 | 55 | 337 | 0.0 | 2.0 | 0.00 | 0.11 | 0.05 | 98 | 1007.1 |
| 20260506015500 | 55 | 339 | 0.0 | 1.0 | 0.00 | 0.11 | 0.05 | 98 | 1007.2 |
| 20260506015001 | 55 | 307 | 0.0 | 3.0 | 0.00 | 0.11 | 0.05 | 98 | 1006.8 |
| 20260506014500 | 55 | 3 | 1.0 | 2.0 | 0.00 | 0.11 | 0.05 | 98 | 1006.9 |
| 20260506014000 | 55 | 309 | 1.0 | 3.0 | 0.00 | 0.11 | 0.05 | 98 | 1007.2 |
| 20260506013500 | 55 | 324 | 0.0 | 4.0 | 0.00 | 0.11 | 0.05 | 98 | 1007.1 |
| 20260506013000 | 55 | 323 | 0.0 | 2.0 | 0.00 | 0.11 | 0.05 | 98 | 1007.1 |
| 20260506012500 | 55 | 337 | 1.0 | 4.0 | 0.00 | 0.11 | 0.05 | 98 | 1007.3 |
| 20260506012000 | 55 | 285 | 1.0 | 2.0 | 0.00 | 0.10 | 0.05 | 98 | 1007.3 |
| 20260506011500 | 55 | 329 | 1.0 | 2.0 | 0.00 | 0.10 | 0.05 | 98 | 1007.4 |
| 20260506011000 | 56 | 339 | 0.0 | 2.0 | 0.00 | 0.10 | 0.05 | 98 | 1007.2 |
| 20260506010500 | 56 | 355 | 0.0 | 3.0 | 0.00 | 0.10 | 0.05 | 98 | 1007.1 |
| 20260506010000 | 56 | 333 | 0.0 | 3.0 | 0.00 | 0.10 | 0.05 | 98 | 1007.2 |
| 20260506005500 | 56 | 333 | 0.0 | 1.0 | 0.00 | 0.10 | 0.05 | 98 | 1007.3 |
| 20260506005000 | 56 | 295 | 0.0 | 3.0 | 0.00 | 0.10 | 0.05 | 98 | 1007.0 |
| 20260506004500 | 56 | 281 | 0.0 | 2.0 | 0.00 | 0.10 | 0.05 | 98 | 1007.1 |
| 20260506004000 | 56 | 288 | 0.0 | 1.0 | 0.00 | 0.10 | 0.05 | 98 | 1007.2 |
| 20260506003500 | 56 | 290 | 1.0 | 3.0 | 0.00 | 0.10 | 0.05 | 98 | 1007.3 |
| 20260506003001 | 56 | 311 | 1.0 | 2.0 | 0.00 | 0.10 | 0.05 | 98 | 1007.3 |
| 20260506002501 | 56 | 284 | 1.0 | 4.0 | 0.00 | 0.10 | 0.05 | 98 | 1007.4 |
| 20260506002001 | 56 | 269 | 2.0 | 5.0 | 0.00 | 0.10 | 0.05 | 98 | 1007.3 |
| 20260506001501 | 57 | 326 | 1.0 | 4.0 | 0.00 | 0.10 | 0.05 | 98 | 1007.1 |
| 20260506001001 | 57 | 270 | 1.0 | 4.0 | 0.00 | 0.10 | 0.05 | 98 | 1007.2 |
| 20260506000501 | 57 | 298 | 1.0 | 3.0 | 0.01 | 0.10 | 0.05 | 98 | 1007.3 |
| 20260506000001 | 57 | 256 | 1.0 | 4.0 | 0.01 | 0.10 | 0.05 | 98 | 1007.3 |
| 20260505235501 | 57 | 338 | 2.0 | 3.0 | 0.01 | 0.10 | 0.05 | 98 | 1007.5 |
| 20260505235001 | 57 | 295 | 1.0 | 3.0 | 0.01 | 0.10 | 0.05 | 98 | 1007.4 |
| 20260505234500 | 57 | 323 | 1.0 | 2.0 | 0.02 | 0.10 | 0.05 | 98 | 1007.5 |
| 20260505234001 | 57 | 344 | 2.0 | 3.0 | 0.02 | 0.10 | 0.05 | 98 | 1007.6 |
| 20260505233500 | 57 | 4 | 2.0 | 5.0 | 0.02 | 0.10 | 0.05 | 98 | 1007.6 |
| 20260505233000 | 57 | 0 | 2.0 | 4.0 | 0.02 | 0.10 | 0.05 | 98 | 1007.6 |
| 20260505232501 | 57 | 334 | 1.0 | 6.0 | 0.03 | 0.10 | 0.05 | 98 | 1007.4 |
| 20260505232000 | 57 | 267 | 1.0 | 3.0 | 0.03 | 0.10 | 0.05 | 98 | 1007.6 |
| 20260505231500 | 57 | 325 | 1.0 | 2.0 | 0.04 | 0.10 | 0.05 | 98 | 1007.6 |
| 20260505231000 | 57 | 272 | 1.0 | 1.0 | 0.04 | 0.10 | 0.04 | 98 | 1007.5 |
| 20260505230500 | 57 | 268 | 1.0 | 3.0 | 0.04 | 0.09 | 0.04 | 98 | 1007.5 |
| 20260505230000 | 57 | 291 | 1.0 | 2.0 | 0.04 | 0.09 | 0.04 | 97 | 1007.6 |
| 20260505225500 | 57 | 252 | 1.0 | 4.0 | 0.03 | 0.09 | 0.03 | 97 | 1007.7 |
| 20260505225000 | 57 | 295 | 1.0 | 3.0 | 0.03 | 0.09 | 0.03 | 97 | 1007.7 |
| 20260505224500 | 57 | 359 | 1.0 | 2.0 | 0.03 | 0.09 | 0.03 | 97 | 1007.8 |
| 20260505224000 | 57 | 294 | 1.0 | 2.0 | 0.03 | 0.09 | 0.03 | 96 | 1007.5 |
| 20260505223500 | 58 | 346 | 0.0 | 1.0 | 0.03 | 0.08 | 0.03 | 96 | 1007.8 |
| 20260505223000 | 58 | 354 | 0.0 | 4.0 | 0.02 | 0.08 | 0.02 | 96 | 1007.7 |
| 20260505222500 | 58 | 304 | 1.0 | 4.0 | 0.02 | 0.07 | 0.02 | 95 | 1007.7 |
| 20260505222000 | 58 | 319 | 2.0 | 6.0 | 0.01 | 0.07 | 0.01 | 95 | 1007.8 |
| 20260505221501 | 58 | 258 | 2.0 | 4.0 | 0.00 | 0.05 | 0.00 | 95 | 1007.7 |
| 20260505221001 | 58 | 266 | 2.0 | 3.0 | 0.00 | 0.05 | 0.00 | 95 | 1007.8 |
| 20260505220501 | 58 | 300 | 1.0 | 3.0 | 0.00 | 0.05 | 0.00 | 95 | 1007.9 |
| 20260505220001 | 58 | 297 | 1.0 | 4.0 | 0.00 | 0.05 | 0.05 | 95 | 1007.8 |
| 20260505215501 | 58 | 301 | 1.0 | 2.0 | 0.00 | 0.05 | 0.05 | 95 | 1007.9 |
| 20260505215001 | 58 | 301 | 0.0 | 3.0 | 0.00 | 0.05 | 0.05 | 95 | 1007.7 |
| 20260505214503 | 58 | 340 | 0.0 | 3.0 | 0.00 | 0.05 | 0.05 | 95 | 1007.9 |
| 20260505214001 | 58 | 343 | 0.0 | 1.0 | 0.00 | 0.05 | 0.05 | 95 | 1007.8 |
| 20260505213501 | 58 | 343 | 0.0 | 1.0 | 0.00 | 0.05 | 0.05 | 95 | 1008.0 |
| 20260505213001 | 58 | 343 | 0.0 | 1.0 | 0.00 | 0.05 | 0.05 | 95 | 1007.8 |
| 20260505212500 | 58 | 343 | 0.0 | 1.0 | 0.00 | 0.05 | 0.05 | 95 | 1008.0 |
| 20260505212000 | 58 | 343 | 0.0 | 0.0 | 0.00 | 0.05 | 0.05 | 95 | 1007.9 |
| 20260505211501 | 58 | 343 | 0.0 | 0.0 | 0.00 | 0.05 | 0.05 | 95 | 1008.0 |
| 20260505211001 | 58 | 343 | 0.0 | 1.0 | 0.00 | 0.05 | 0.05 | 95 | 1008.0 |
| 20260505210500 | 58 | 343 | 0.0 | 0.0 | 0.00 | 0.05 | 0.05 | 95 | 1008.2 |
| 20260505210000 | 58 | 343 | 0.0 | 0.0 | 0.00 | 0.05 | 0.05 | 95 | 1008.1 |
| 20260505205502 | 58 | 343 | 0.0 | 1.0 | 0.00 | 0.05 | 0.05 | 95 | 1008.1 |
| 20260505205000 | 58 | 343 | 0.0 | 1.0 | 0.00 | 0.05 | 0.05 | 95 | 1007.9 |
| 20260505204500 | 58 | 343 | 0.0 | 1.0 | 0.00 | 0.05 | 0.05 | 95 | 1008.0 |
| 20260505204000 | 58 | 347 | 0.0 | 0.0 | 0.00 | 0.05 | 0.05 | 95 | 1008.0 |
| 20260505203500 | 59 | 347 | 0.0 | 1.0 | 0.00 | 0.05 | 0.05 | 95 | 1008.3 |
| 20260505203000 | 59 | 347 | 0.0 | 0.0 | 0.00 | 0.05 | 0.05 | 95 | 1007.8 |
| 20260505202000 | 59 | 347 | 0.0 | 0.0 | 0.00 | 0.05 | 0.05 | 95 | 1007.9 |
| 20260505201500 | 59 | 347 | 0.0 | 0.0 | 0.00 | 0.05 | 0.05 | 95 | 1008.0 |
| 20260505201000 | 59 | 347 | 0.0 | 1.0 | 0.00 | 0.05 | 0.05 | 95 | 1008.0 |
| 20260505200500 | 59 | 347 | 0.0 | 1.0 | 0.00 | 0.05 | 0.05 | 95 | 1008.1 |
| 20260505200001 | 59 | 347 | 0.0 | 0.0 | 0.00 | 0.05 | 0.05 | 95 | 1007.9 |
| 20260505195501 | 59 | 347 | 0.0 | 1.0 | 0.00 | 0.05 | 0.05 | 95 | 1008.1 |
| 20260505195001 | 59 | 347 | 0.0 | 0.0 | 0.00 | 0.05 | 0.05 | 94 | 1008.0 |
| 20260505194501 | 59 | 347 | 0.0 | 1.0 | 0.00 | 0.05 | 0.05 | 94 | 1008.0 |
| 20260505194001 | 59 | 347 | 0.0 | 0.0 | 0.00 | 0.05 | 0.05 | 94 | 1008.1 |
| 20260505193501 | 59 | 347 | 0.0 | 1.0 | 0.00 | 0.05 | 0.05 | 94 | 1008.0 |
| 20260505193001 | 59 | 347 | 0.0 | 0.0 | 0.00 | 0.05 | 0.05 | 93 | 1007.7 |
| 20260505192501 | 59 | 348 | 0.0 | 1.0 | 0.00 | 0.05 | 0.05 | 93 | 1007.8 |
| 20260505192001 | 59 | 348 | 0.0 | 0.0 | 0.00 | 0.05 | 0.05 | 93 | 1007.7 |
| 20260505191500 | 59 | 348 | 0.0 | 0.0 | 0.00 | 0.05 | 0.05 | 92 | 1007.9 |
| 20260505191000 | 60 | 348 | 0.0 | 2.0 | 0.00 | 0.05 | 0.05 | 92 | 1007.7 |
| 20260505190500 | 60 | 348 | 0.0 | 1.0 | 0.00 | 0.05 | 0.05 | 92 | 1007.8 |
| 20260505190000 | 60 | 348 | 0.0 | 0.0 | 0.00 | 0.05 | 0.05 | 91 | 1007.7 |
| 20260505185500 | 60 | 348 | 0.0 | 1.0 | 0.00 | 0.05 | 0.05 | 91 | 1007.5 |
| 20260505185000 | 60 | 348 | 0.0 | 0.0 | 0.00 | 0.05 | 0.05 | 90 | 1007.8 |
| 20260505184501 | 60 | 349 | 0.0 | 0.0 | 0.00 | 0.05 | 0.05 | 90 | 1007.8 |
| 20260505184000 | 60 | 348 | 0.0 | 1.0 | 0.00 | 0.05 | 0.05 | 91 | 1007.7 |
| 20260505183500 | 60 | 348 | 0.0 | 0.0 | 0.00 | 0.05 | 0.05 | 91 | 1007.8 |
| 20260505183000 | 60 | 349 | 0.0 | 1.0 | 0.00 | 0.05 | 0.05 | 91 | 1007.8 |
| 20260505182500 | 60 | 349 | 0.0 | 1.0 | 0.00 | 0.05 | 0.05 | 91 | 1007.8 |
| 20260505182000 | 60 | 349 | 0.0 | 0.0 | 0.00 | 0.05 | 0.05 | 90 | 1007.8 |
| 20260505181500 | 60 | 349 | 0.0 | 0.0 | 0.00 | 0.05 | 0.05 | 90 | 1007.7 |
| 20260505181001 | 60 | 349 | 0.0 | 1.0 | 0.00 | 0.05 | 0.05 | 90 | 1007.7 |
| 20260505180501 | 60 | 354 | 0.0 | 0.0 | 0.00 | 0.05 | 0.05 | 90 | 1007.9 |
| 20260505180001 | 60 | 354 | 0.0 | 0.0 | 0.00 | 0.05 | 0.05 | 89 | 1007.8 |
| 20260505175501 | 61 | 354 | 0.0 | 0.0 | 0.00 | 0.05 | 0.05 | 89 | 1007.7 |
| 20260505175001 | 61 | 354 | 0.0 | 0.0 | 0.00 | 0.05 | 0.05 | 89 | 1007.8 |
| 20260505174501 | 61 | 354 | 0.0 | 1.0 | 0.00 | 0.05 | 0.05 | 89 | 1008.0 |
| 20260505174001 | 61 | 1 | 0.0 | 1.0 | 0.00 | 0.05 | 0.05 | 88 | 1007.9 |
| 20260505173501 | 61 | 2 | 0.0 | 2.0 | 0.00 | 0.05 | 0.05 | 88 | 1007.8 |
| 20260505173002 | 61 | 2 | 0.0 | 0.0 | 0.00 | 0.05 | 0.05 | 88 | 1008.0 |
| 20260505172500 | 61 | 2 | 0.0 | 1.0 | 0.00 | 0.05 | 0.05 | 87 | 1007.9 |
| 20260505172001 | 61 | 4 | 0.0 | 1.0 | 0.00 | 0.05 | 0.05 | 87 | 1007.9 |
| 20260505171500 | 61 | 7 | 0.0 | 1.0 | 0.00 | 0.05 | 0.05 | 87 | 1008.1 |
| 20260505171000 | 61 | 9 | 0.0 | 1.0 | 0.00 | 0.05 | 0.05 | 87 | 1008.1 |
| 20260505170501 | 61 | 8 | 0.0 | 1.0 | 0.00 | 0.05 | 0.05 | 87 | 1008.0 |
| 20260505170000 | 61 | 14 | 1.0 | 1.0 | 0.00 | 0.05 | 0.05 | 86 | 1008.2 |
| 20260505165500 | 61 | 9 | 1.0 | 2.0 | 0.01 | 0.05 | 0.05 | 86 | 1008.0 |
| 20260505165000 | 61 | 343 | 1.0 | 2.0 | 0.01 | 0.05 | 0.05 | 86 | 1008.2 |
| 20260505164500 | 62 | 344 | 1.0 | 3.0 | 0.02 | 0.05 | 0.05 | 85 | 1008.2 |
| 20260505164000 | 62 | 20 | 1.0 | 2.0 | 0.02 | 0.05 | 0.05 | 85 | 1008.0 |
| 20260505163500 | 62 | 29 | 1.0 | 2.0 | 0.02 | 0.05 | 0.05 | 85 | 1008.1 |
| 20260505163000 | 62 | 13 | 2.0 | 2.0 | 0.02 | 0.05 | 0.05 | 85 | 1008.1 |
| 20260505162500 | 62 | 26 | 1.0 | 3.0 | 0.02 | 0.05 | 0.05 | 85 | 1008.1 |
| 20260505161500 | 62 | 9 | 2.0 | 3.0 | 0.03 | 0.05 | 0.05 | 85 | 1008.1 |
| 20260505161001 | 62 | 14 | 2.0 | 3.0 | 0.03 | 0.05 | 0.05 | 85 | 1008.3 |
| 20260505160501 | 62 | 10 | 1.0 | 5.0 | 0.03 | 0.04 | 0.04 | 86 | 1008.3 |
| 20260505153000 | 64 | 344 | 1.0 | 2.0 | 0.02 | 0.02 | 0.02 | 85 | 1008.7 |
| 20260505152500 | 64 | 341 | 2.0 | 2.0 | 0.01 | 0.02 | 0.02 | 85 | 1008.7 |
| 20260505152001 | 64 | 262 | 3.0 | 5.0 | 0.01 | 0.02 | 0.02 | 83 | 1008.7 |
| 20260505151500 | 64 | 354 | 3.0 | 5.0 | 0.00 | 0.01 | 0.01 | 81 | 1008.5 |
| 20260505151000 | 65 | 304 | 3.0 | 8.0 | 0.00 | 0.01 | 0.01 | 80 | 1008.5 |
| 20260505150500 | 65 | 347 | 2.0 | 5.0 | 0.00 | 0.01 | 0.01 | 79 | 1008.4 |
| 20260505140501 | 67 | 6 | 2.0 | 4.0 | 0.00 | 0.00 | 0.00 | 74 | 1008.4 |
| 20260505125000 | 71 | 336 | 1.0 | 4.0 | 0.00 | 0.00 | 0.00 | 52 | 1008.2 |
| 20260505124500 | 71 | 312 | 2.0 | 4.0 | 0.00 | 0.00 | 0.00 | 51 | 1008.2 |
| 20260505124000 | 71 | 327 | 1.0 | 4.0 | 0.00 | 0.00 | 0.00 | 52 | 1008.2 |
| 20260505123500 | 71 | 300 | 1.0 | 2.0 | 0.00 | 0.00 | 0.00 | 52 | 1008.5 |
| 20260505123000 | 71 | 268 | 1.0 | 2.0 | 0.00 | 0.00 | 0.00 | 52 | 1008.4 |
| 20260505122500 | 71 | 244 | 1.0 | 3.0 | 0.00 | 0.00 | 0.00 | 52 | 1008.4 |
| 20260505122000 | 71 | 268 | 1.0 | 3.0 | 0.00 | 0.00 | 0.00 | 52 | 1008.3 |
| 20260505121500 | 71 | 2 | 1.0 | 5.0 | 0.00 | 0.00 | 0.00 | 52 | 1008.6 |
| 20260505121000 | 71 | 326 | 1.0 | 2.0 | 0.00 | 0.00 | 0.00 | 51 | 1008.4 |
| 20260505120500 | 71 | 329 | 1.0 | 2.0 | 0.00 | 0.00 | 0.00 | 50 | 1008.4 |
| 20260505120001 | 71 | 235 | 1.0 | 2.0 | 0.00 | 0.00 | 0.00 | 51 | 1008.8 |
| 20260505115501 | 71 | 308 | 1.0 | 4.0 | 0.00 | 0.00 | 0.00 | 50 | 1008.5 |
| 20260505115001 | 72 | 274 | 1.0 | 4.0 | 0.00 | 0.00 | 0.00 | 51 | 1008.7 |
| 20260505114501 | 72 | 252 | 1.0 | 4.0 | 0.00 | 0.00 | 0.00 | 48 | 1008.6 |
| 20260505114001 | 72 | 203 | 2.0 | 2.0 | 0.00 | 0.00 | 0.00 | 51 | 1008.5 |
| 20260505113501 | 72 | 204 | 2.0 | 3.0 | 0.00 | 0.00 | 0.00 | 51 | 1008.5 |
| 20260505113001 | 71 | 212 | 2.0 | 4.0 | 0.00 | 0.00 | 0.00 | 51 | 1008.6 |
| 20260505112501 | 72 | 229 | 2.0 | 2.0 | 0.00 | 0.00 | 0.00 | 51 | 1008.8 |
| 20260505112001 | 72 | 280 | 0.0 | 4.0 | 0.00 | 0.00 | 0.00 | 51 | 1008.7 |
| 20260505111500 | 72 | 322 | 1.0 | 2.0 | 0.00 | 0.00 | 0.00 | 50 | 1008.6 |
| 20260505111001 | 72 | 301 | 1.0 | 1.0 | 0.00 | 0.00 | 0.00 | 51 | 1008.9 |
| 20260505110501 | 72 | 17 | 1.0 | 3.0 | 0.00 | 0.00 | 0.00 | 50 | 1008.9 |
| 20260505102000 | 71 | 8 | 1.0 | 4.0 | 0.00 | 0.00 | 0.00 | 55 | 1009.3 |
| 20260505101501 | 71 | 173 | 1.0 | 2.0 | 0.00 | 0.00 | 0.00 | 55 | 1009.3 |
| 20260505101001 | 71 | 198 | 1.0 | 3.0 | 0.00 | 0.00 | 0.00 | 54 | 1009.5 |
| 20260505100501 | 71 | 190 | 1.0 | 5.0 | 0.00 | 0.00 | 0.00 | 53 | 1009.4 |
| 20260505100001 | 70 | 185 | 1.0 | 5.0 | 0.00 | 0.00 | 0.00 | 53 | 1009.2 |
| 20260505095501 | 70 | 306 | 0.0 | 2.0 | 0.00 | 0.00 | 0.00 | 53 | 1009.4 |
| 20260505095001 | 70 | 4 | 1.0 | 2.0 | 0.00 | 0.00 | 0.00 | 53 | 1009.3 |
| 20260505094501 | 70 | 16 | 1.0 | 5.0 | 0.00 | 0.00 | 0.00 | 53 | 1009.3 |
| 20260505094001 | 70 | 350 | 2.0 | 3.0 | 0.00 | 0.00 | 0.00 | 54 | 1009.6 |
| 20260505093500 | 70 | 38 | 0.0 | 6.0 | 0.00 | 0.00 | 0.00 | 54 | 1009.3 |
| 20260505093001 | 70 | 308 | 0.0 | 1.0 | 0.00 | 0.00 | 0.00 | 54 | 1009.5 |
| 20260505092500 | 69 | 323 | 1.0 | 2.0 | 0.00 | 0.00 | 0.00 | 53 | 1009.5 |
| 20260505092000 | 69 | 324 | 1.0 | 3.0 | 0.00 | 0.00 | 0.00 | 53 | 1009.6 |
| 20260505091500 | 69 | 351 | 1.0 | 3.0 | 0.00 | 0.00 | 0.00 | 55 | 1009.8 |
| 20260505091000 | 69 | 342 | 1.0 | 2.0 | 0.00 | 0.00 | 0.00 | 56 | 1009.9 |
| 20260505090500 | 69 | 352 | 1.0 | 3.0 | 0.00 | 0.00 | 0.00 | 58 | 1009.9 |
| 20260505085500 | 68 | 350 | 0.0 | 2.0 | 0.00 | 0.00 | 0.00 | 61 | 1009.8 |
| 20260505085000 | 68 | 354 | 0.0 | 1.0 | 0.00 | 0.00 | 0.00 | 60 | 1009.7 |
| 20260505084500 | 68 | 353 | 0.0 | 4.0 | 0.00 | 0.00 | 0.00 | 61 | 1009.9 |
| 20260505084000 | 67 | 211 | 0.0 | 3.0 | 0.00 | 0.00 | 0.00 | 61 | 1010.1 |
| 20260505083500 | 67 | 319 | 0.0 | 1.0 | 0.00 | 0.00 | 0.00 | 61 | 1010.2 |
| 20260505083000 | 67 | 21 | 0.0 | 3.0 | 0.00 | 0.00 | 0.00 | 64 | 1010.1 |
| 20260505082500 | 67 | 183 | 0.0 | 1.0 | 0.00 | 0.00 | 0.00 | 66 | 1010.0 |
| 20260505082000 | 66 | 194 | 0.0 | 3.0 | 0.00 | 0.00 | 0.00 | 66 | 1010.2 |
| 20260505081501 | 66 | 119 | 1.0 | 2.0 | 0.00 | 0.00 | 0.00 | 68 | 1010.2 |
| 20260505081001 | 65 | 203 | 1.0 | 5.0 | 0.00 | 0.00 | 0.00 | 68 | 1009.9 |
| 20260505080501 | 65 | 113 | 0.0 | 1.0 | 0.00 | 0.00 | 0.00 | 69 | 1010.3 |
| 20260505080001 | 65 | 198 | 1.0 | 3.0 | 0.00 | 0.00 | 0.00 | 70 | 1010.1 |
| 20260505075501 | 64 | 199 | 0.0 | 2.0 | 0.00 | 0.00 | 0.00 | 72 | 1010.2 |
| 20260505075001 | 64 | 214 | 1.0 | 2.0 | 0.00 | 0.00 | 0.00 | 72 | 1010.2 |
| 20260505074501 | 64 | 192 | 1.0 | 4.0 | 0.00 | 0.00 | 0.00 | 73 | 1010.4 |
| 20260505074001 | 63 | 202 | 1.0 | 2.0 | 0.00 | 0.00 | 0.00 | 74 | 1010.4 |
| 20260505073501 | 63 | 196 | 1.0 | 2.0 | 0.00 | 0.00 | 0.00 | 75 | 1010.3 |
| 20260505073001 | 63 | 123 | 0.0 | 2.0 | 0.00 | 0.00 | 0.00 | 75 | 1010.3 |
| 20260505072500 | 62 | 216 | 0.0 | 2.0 | 0.00 | 0.00 | 0.00 | 75 | 1010.4 |
| 20260505072000 | 62 | 234 | 0.0 | 4.0 | 0.00 | 0.00 | 0.00 | 77 | 1010.6 |
| 20260505071500 | 61 | 143 | 0.0 | 3.0 | 0.00 | 0.00 | 0.00 | 78 | 1010.5 |
| 20260505071000 | 61 | 169 | 0.0 | 1.0 | 0.00 | 0.00 | 0.00 | 79 | 1010.6 |
| 20260505070501 | 61 | 203 | 1.0 | 1.0 | 0.00 | 0.00 | 0.00 | 80 | 1010.7 |